www.pogodaiklimat.ru

Погода и климат >> Архив погоды >> Россия >> Чукотка >> Илирней


АРХИВ ПОГОДЫ в Илирнее

Время (UTC), дата Ветер
(напр.,м/с)
 
Видим.   Явления Облачность Т
(С)
Тd
(С)
f
(%)
Тe
(С)
Тes
(С)
Комфортность P
(гПа)
Po
(гПа)
Тmin
(С)
Tmax
(С)
R
(мм)
R24
(мм)
S
(см)
03 14.09 СЗ 2
{5}
50 км ясно +5.3 -2.9 55 +3 +6 1012.3 969.5
06 14.09 СЗ 3
{7}
50 км ясно +5.6 -5.5 45 +3 +3 1010.6 967.9
09 14.09 В 3
{7}
50 км ясно +2.3 -4.0 63 -1 -1 1012.4 969.1 +5.8
12 14.09 ЮВ 3
{5}
50 км ясно +1.3 -2.9 74 -3 -3 1012.8 969.4
15 14.09 В 2
{3}
50 км ясно -5.1 +5.1 100 -10 -10 1013.8 969.2
18 14.09 В 1
{2}
50 км ясно -8.6 -8.6 100 -11 -11 1014.5 969.4
21 14.09 В 1
{1}
50 км ясно -3.0 -4.0 93 -5 -4 1013.1 968.9 -8.6
00 15.09 ЮВ 1
{2}
50 км 4/0
[Ac trans]
+2.8 -1.4 74 +1 +5 1010.4 967.2
03 15.09 В 1
{2}
50 км 8/0
[Ac trans]
+9.8 +0.4 52 +10 +11 1008.0 966.0
06 15.09 штиль 0
{2}
50 км 10/0
[Ac und]
+9.2 +0.6 55 +9 +9 1008.0 966.0
09 15.09 штиль 0
{1}
50 км 10/0
[Ac und]
+7.6 +1.5 65 +7 +7 1008.9 966.6 +10.2
12 15.09 штиль 0
{1}
50 км 10/0
[Ac und]
+5.1 -0.5 67 +4 +4 1010.2 967.5
15 15.09 штиль 0
{1}
50 км 10/0
[Ac und]
+2.2 -2.1 73 +1 +1 1011.5 968.3
18 15.09 ЮВ 1
{2}
50 км 10/0
[Ac und]
+1.1 -2.7 76 -1 -1 1012.5 969.1
21 15.09 штиль 0
{2}
50 км 10/0
[Ac und]
+2.7 -1.8 72 +2 +2 1013.1 969.8 +1.1
00 16.09 СЗ 1
{2}
50 км 10/0
[Ac und]
+6.3 -1.2 59 +6 +7 1012.9 970.3
03 16.09 СВ 2
{4}
50 км 10/0
[Ac und]
+11.0 -0.7 44 +10 +11 1013.0 971.0
06 16.09 СВ 2
{4}
50 км 10/0
[Ac und]
+10.3 -2.7 40 +9 +10 1013.5 971.4
09 16.09 В 2
{4}
50 км 10/0
[Ac und]
+7.1 0.0 61 +5 +5 1014.8 972.2 +11.2
12 16.09 В 2
{3}
50 км ясно +0.7 -1.2 87 -3 -3 1017.1 973.3
15 16.09 штиль 0
{2}
50 км ясно -1.8 -1.8 100 -3 -3 1018.1 974.0
18 16.09 штиль 0
{2}
50 км ясно -4.1 -4.1 100 -5 -5 1019.0 974.4
21 16.09 штиль 0
{2}
50 км ясно +1.2 -2.1 79 0 +2 1020.7 975.0 -4.1
00 17.09 З 3
{6}
50 км 10/10 600 м
[Sc]
+4.1 -1.1 69 +1 +1 1017.5 974.4
03 17.09 СЗ 5
{8}
50 км 10/10 600 м
[Cu med, cong]
+8.2 -2.2 48 +5 +5 1016.4 973.9
06 17.09 СЗ 5
{7}
50 км 10/10 600 м
[Cu med, cong]
+7.7 -2.2 49 +4 +4 1016.4 973.7
09 17.09 СЗ 4
{6}
50 км 10/0
[Ac und]
+5.3 -0.2 68 +2 +2 1016.9 973.9 +8.3
12 17.09 ЮВ 2
{3}
50 км 10/0
[Ac und]
+3.3 -0.5 76 +1 +1 1017.0 973.7
15 17.09 штиль 0
{2}
50 км 10/0
[Ac und]
+2.4 -0.3 82 +1 +1 1016.5 973.1
18 17.09 штиль 0
{2}
50 км 10/0
[Ac und]
+1.0 -0.1 92 -0 -0 1015.3 971.8
21 17.09 СВ 3
{3}
50 км 10/0
[Ac und]
+3.2 -0.4 77 -1 -0 1014.9 972.6 +0.9
00 18.09 В 3
{4}
50 км 5/0
[Ac trans]
+7.8 -0.5 56 +5 +7 1014.3 971.7
03 18.09 СВ 3
{9}
50 км 3/0
[Ac trans]
+8.0 -2.2 48 +6 +7 1012.9 970.6
06 18.09 В 1
{5}
50 км ясно +7.6 -2.7 48 +7 +8 1012.1 969.6
09 18.09 ЮВ 1
{3}
20 км 8/0
[Ac trans]
-0.5 -1.7 92 -3 -3 1013.5 969.7 +9.2
12 18.09 ЮЗ 1
{2}
20 км 5/0
[Ac trans]
-1.0 -1.4 97 -3 -3 1013.5 969.7
15 18.09 В 1
{2}
20 км ясно -3.2 -3.2 100 -6 -6 1014.3 970.1
18 18.09 Ю 1
{2}
50 км ясно -5.1 -5.1 100 -8 -8 1015.2 970.6
21 18.09 ЮВ 1
{2}
50 км 8/0
[Ac trans]
-0.5 -0.8 98 -3 -2 1015.1 971.3 -5.1
00 19.09 СВ 4
{7}
50 км 4/4 1000 м
[Cu med, cong]
+4.0 -7.7 42 0 +2 1014.7 971.5
03 19.09 С 2
{7}
50 км 10/0
[Ac und]
+4.4 -8.0 40 +3 +3 1014.6 971.6
06 19.09 СЗ 1
{5}
50 км 10/0
[Ac und]
+3.8 -8.1 41 +3 +3 1014.7 971.5
09 19.09 штиль 0
{3}
20 км 10/0
[Ac und]
+2.0 -1.7 76 +1 +1 1015.6 972.2 +4.4
12 19.09 штиль 0
{1}
20 км 10/0
[Ac und]
0.0 -1.2 92 -1 -1 1019.1 975.2
15 19.09 штиль 0
{1}
20 км 10/0
[Ac und]
-0.8 -1.2 97 -2 -2 1019.9 975.9
18 19.09 штиль 0 50 км 10/0
[Ac und]
-1.6 -1.8 99 -3 -3 1020.3 976.3
21 19.09 СЗ 2
{5}
50 км 10/0
[Ac und]
-0.3 -2.7 84 -4 -4 1019.2 975.2 -1.6
00 20.09 СЗ 1
{3}
50 км 10/0
[Ac und]
+2.9 -4.7 57 +2 +3 1016.8 973.4
03 20.09
{6}
50 км 10/0
[Ac und]
+3.0 -3.1 64 1016.7 973.4
06 20.09 СЗ 3
{7}
50 км 10/10 600 м
[Cu med, cong]
+1.0 -3.2 74 -3 -3 1016.3 972.8
09 20.09 ЮЗ 3
{5}
20 км 10/10 600 м
[Cu med, cong]
0.0 -2.1 86 -5 -5 1016.0 972.3 +3.1
12 20.09 В 1
{2}
20 км 10/10 600 м
[Cu med, cong]
-1.1 -1.7 96 -3 -3 1015.8 971.8
15 20.09 штиль 0
{1}
20 км 10/10 600 м
[Cu med, cong]
-3.1 -3.1 100 -4 -4 1015.6 971.3
18 20.09 СВ 1
{2}
50 км 10/0
[Ac und]
-5.6 -5.6 100 -8 -8 1014.9 970.1
21 20.09 В 2
{3}
50 км 10/0
[Ac und]
-2.3 -4.7 84 -6 -6 1014.2 970.1 -5.7
00 21.09 ЮВ 2
{3}
50 км 10/0
[Ac und]
-0.5 -5.0 72 -4 -3 1012.5 968.8

 

Местоположение метеостанции Илирней (Чукотка, Россия): широта 67.25 долгота 167.90 высота над уровнем моря 354 м.

В архиве по умолчанию представлена погода в Илирнее за последнюю неделю. Архивные данные за месяц целиком и за предыдущие месяцы, начиная с января 2011 года, Вы можете получить, выбрав интересующий диапазон дат из раскрывающегося списка и нажав кнопку "Ввод!".


*Определитесь, кто Вы:
робот инопланетянин человек

Внимание! Время в таблицах - всемирное. Для получения местного времени необходимо прибавить поправку, которая равна 12 ч.

Смотрите также архив погоды в соседних городах и на ближайших метеорологических станциях:

Погода в Билибино (Чукотка, Россия) (109 км)
Погода в Баимке (Чукотка, Россия) (180 км)
Погода в Островном (Чукотка, Россия) (187 км)
Погода в Чауне (Чукотка, Россия) (215 км)
Погода в Эньмувееме (Чукотка, Россия) (255 км)
Погода в Раучуе (Чукотка, Россия) (257 км)
Погода в Майской (Чукотка, Россия) (276 км)
Погода в Певеке (Чукотка, Россия) (288 км)
Погода на 21 км (Чукотка, Россия) (290 км)
Погода в Комсомольской (Чукотка, Россия) (291 км)

Пояснения к столбцам:

Ветер - указаны скорость ветра в м/с - средняя за 10 мин, порывы в срок и между сроками (в фигурных скобках) и направление, откуда дует ветер: С - северный, СВ - северо-восточный, В - восточный, ЮВ - юго-восточный, Ю - южный, ЮЗ - юго-западный, З - западный, СЗ - северо-западный.
Видимость - горизонтальная дальность видимости в метрах или километрах. При видимости от 1 до 10 км при отсутствии осадков обычно наблюдается дымка, при ухудшении видимости до 1 км и менее - туман. В сухую погоду видимость может ухудшаться дымом, пылью или мглою.
Явления - указаны атмосферные явления, наблюдавшиеся в срок или в последний час перед сроком; фигурными скобками обозначены явления, наблюдавшиеся между сроками (за 1-3 часа до срока); квадратными скобками обозначены град или гололедные отложения с указанием их диаметра в мм.
Облачность - указаны через наклонную черту общая и нижняя облачность в баллах и высота нижней границы облаков в метрах; квадратными скобками обозначены формы облаков: Ci - перистые, Cs - перисто-слоистые, Cc - перисто-кучевые, Ac - высококучевые, As - высокослоистые, Sc - слоисто-кучевые, Ns - слоисто-дождевые, Cu - кучевые, Cb - кучево-дождевые. Подробнее классификацию облаков см. в Атласе облаков (PDF).
T - Температура воздуха - температура, измеренная на высоте 2 м над землей.
Td - Температура точки росы - температура, при понижении до которой содержащийся в воздухе водяной пар достигнет насыщения.
f - Относительная влажность воздуха - влажноcть воздуха, измеренная на высоте 2 м над землей.
Te - Эффективная температура - температура, которую ощущает одетый по сезону человек в тени. Характеристика душности погоды. При расчете учитывается влияние влажности воздуха и скорости ветра на теплоощущения человека.
Tes - Эффективная температура на солнце - температура, которую ощущает человек, с поправкой на солнечный нагрев. Характеристика знойности погоды. Зависит от высоты солнца над горизонтом, облачности и скорости ветра. Ночью, в пасмурную погоду, а также при ветре 12 м/с и более поправка равна нулю.
P - Атмосферное давление - приведенное к уровню моря атмосферное давление.
Po - Атмосферное давление - измеренное на уровне метеостанции атмосферное давление.
Tmin - Минимальная температура - минимум температуры воздуха на высоте 2 м над землей.
Tmax - Максимальная температура - максимум температуры воздуха на высоте 2 м над землей.
R - Количество осадков - Количество выпавших осадков за период времени, мм. При наведении курсора мыши на число - период времени, за который выпало указанное количество осадков.
R24 - Количество осадков - Количество выпавших осадков за 24 часа, мм.
S - Снежный покров - Высота снежного покрова, см. При наведении курсора мыши на число - состояние снежного покрова и степень покрытия местности в баллах.